Location: Canyon Rim
(40.8777°N, 111.8641°W)
Time: 07:38:05
(UTC+00:00)

X-37B - Pass Details

Date: 25 April 2021
Orbit: 386 x 389 km, 45.0° (Epoch: 08 May)

Event Time Altitude Azimuth Distance (km) Brightness Sun altitude
Exits shadow 10:35:50 36° 332° (NNW) 633 1.7 -20.2°
Maximum altitude 10:36:33 43° 10° (N) 554 1.6 -20.1°
Drops below altitude 10° 10:39:37 10° 84° (E) 1,412 4.2 -19.6°
Sets 10:41:45 0° 91° (E) 2,265 5.3 -19.3°
